Regional Weather Roundup
Issued by NWS

Home | Current Version | Previous Version | Graphics & Text | Print | Product List | Glossary On
Versions: 1 2 3 4 5 6 7 8 9 10 11 12 13 14 15 16 17 18 19 20 21 22 23 24 25 26 27 28 29 30 31 32 33 34 35 36 37 38 39 40 41 42 43 44 45 46 47 48 49 50
000
ASUS45 KBOU 151007
RWRCO

WEATHER ROUNDUP FOR COLORADO
NATIONAL WEATHER SERVICE DENVER/BOULDER CO
400 AM MDT MON SEP 15 2014

NOTE: "FAIR" INDICATES FEW OR NO CLOUDS BELOW 12000 FEET WITH NO
SIGNIFICANT WEATHER AND/OR OBSTRUCTIONS TO VISIBILITY.

COZ001>005-013-030-031-151100-
...NORTHWEST COLORADO...

CITY           SKY/WX    TMP DP  RH WIND       PRES   REMARKS
CRAIG          PTCLDY    42  37  82 CALM      30.27R
HAYDEN         CLEAR     48  36  61 E12       30.28R
MEEKER         CLEAR     45  39  79 E5        30.28R
MOUNT WERNER   NOT AVBL
STEAMBOAT SPGS CLEAR     46  37  71 CALM      30.31R
WALDEN         CLEAR     36  32  87 SE6       30.36S
$$

COZ006>008-011-151100-
...WEST CENTRAL VALLEYS...

CITY           SKY/WX    TMP DP  RH WIND       PRES   REMARKS
GRAND JUNCTION PTCLDY    61  38  42 E12       30.14R
MONTROSE       CLEAR     54  42  64 SE8       30.23R
EAGLE          CLEAR     45  39  81 CALM      30.34R
RIFLE          CLEAR     51  38  60 CALM      30.23R
DELTA          CLEAR     59  40  50 NE8       30.19S
NUCLA          CLEAR     54  41  62 E7        30.26R
$$

COZ017>023-064>068-151100-
...SOUTHWEST COLORADO...

CITY           SKY/WX    TMP DP  RH WIND       PRES   REMARKS
DURANGO        PTCLDY    53  41  63 N6        30.29R
CORTEZ         CLEAR     50  42  74 E6        30.23R
PAGOSA SPRINGS NOT AVBL
TELLURIDE      PTCLDY    48  37  66 SE5       30.45R
WOLF CREEK PAS PTCLDY    41  41 100 SW9       30.62S
$$

COZ009-010-012-014-032>034-037-058>063-151100-
...CENTRAL COLORADO...

CITY           SKY/WX    TMP DP  RH WIND       PRES   REMARKS
ASPEN          CLEAR     47  34  60 S6        30.36R
BUENA VISTA    PTCLDY    45  32  61 E3        30.38R
COPPER MTN     CLEAR     46  28  49 W17       30.62S
BERTHOUD PASS  FAIR      37  36  93 NW15      30.65S
COTTONWOOD PAS PTCLDY    55  28  35 W10       30.48S
GUNNISON       CLEAR     41  34  75 CALM      30.40S
KREMMLING      CLEAR     37  34  87 CALM      30.38R
LEADVILLE      CLEAR     38  29  70 NE5       30.48S
MONARCH PASS   CLEAR     43  30  61 W12       30.72S
SALIDA         PTCLDY    49  33  55 W6        30.44R
SUNLIGHT       PTCLDY    54  32  43 CALM      30.56R
WILKERSON PASS NOT AVBL
$$

COZ069>075-151100-
...SAN LUIS VALLEY/SANGRE DE CRISTO MOUNTAINS...

CITY           SKY/WX    TMP DP  RH WIND       PRES   REMARKS
ALAMOSA        CLEAR     49  44  83 CALM      30.34R
LA VETA PASS   NOT AVBL
SAGUACHE       NOT AVBL
$$

COZ035-036-038>040-151100-
...NORTHERN COLORADO FRONT RANGE...

CITY           SKY/WX    TMP DP  RH WIND       PRES   REMARKS
DENVER INTL AP PTCLDY    50  46  86 NW7       30.28R
DMNS CITY PARK   N/A     54  46  75 N2        30.28R
AURORA         PTCLDY    49  47  93 W5        30.30R
FRONT RANGE AP CLOUDY    52  50  93 NW6       30.28R
ERIE MUNI ARPT CLEAR     49  46  89 SW3       30.28R
BOULDER MUN AP CLEAR     54  50  87 CALM      30.28R
CENTENNIAL     PTCLDY    51  47  86 NW5       30.30R
BROOMFIELD     CLOUDY    54  46  76 CALM      30.30R
FORT COLLINS   PTCLDY    52  45  76 CALM      30.27R
LONGMONT       PTCLDY    55  49  80 S3        30.28R
$$

COZ041-046-047-076>085-087-088-151100-
...PIKES PEAK/PALMER DIVIDE AND SOUTHERN FOOTHILLS...

CITY           SKY/WX    TMP DP  RH WIND       PRES   REMARKS
COLO. SPRINGS  CLEAR     60  36  40 N15       30.22R
A. F. ACADEMY  CLEAR     52  44  74 N16       30.27R
ELLICOTT       NOT AVBL
FALCON         CLEAR     55  38  54 N15G21    30.28R
FORT CARSON    CLEAR     60  37  42 N18       30.19R
LIMON          CLOUDY    50  50 100 NW17G26   30.22R FOG
MONUMENT HILL  FOG       46  46 100 NW14      30.32R VSB 1
TRINIDAD       MOCLDY    61  48  62 W12       30.17R
$$

COZ042>045-048>051-090-091-151100-
...NORTHEAST COLORADO...

CITY           SKY/WX    TMP DP  RH WIND       PRES   REMARKS
GREELEY ARPT   PTCLDY    48  39  71 CALM      30.26R
AKRON          LGT RAIN  50  49  96 N18       30.21R FOG
BURLINGTON     FOG       57  55  93 N16G23    30.12R VSB 1/4
WRAY           CLOUDY    57  57 100 N9        30.16R
STERLING       CLOUDY    54  50  87 N13       30.21R
HOLYOKE        CLOUDY    54  50  87 N16       30.18R
FORT MORGAN    CLOUDY    49  44  81 N18       30.23R
$$

COZ086-089-092>099-151100-
...SOUTHEAST COLORADO...

CITY           SKY/WX    TMP DP  RH WIND       PRES   REMARKS
PUEBLO         CLEAR     59  38  45 W9        30.11R
LA JUNTA       CLEAR     59  52  77 S3        30.06R
LAMAR          PTCLDY    52  50  93 S3        30.02S
SPRINGFIELD      N/A     55  54  96 SW5       30.08R
$$



USA.gov is the U.S. government's official web portal to all federal, state and local government web resources and services.